Weather reports worldwide

Advertisment
Leutkirch-Herlazhofen, Germany (10945): temperature & dewpoint: 19.08.2019 08:00:00 - 25.08.2019 08:00:00 (CEST)Leutkirch-Herlazhofen, Germany (10945): temperature 5cm & temperature -5cm: 19.08.2019 08:00:00 - 25.08.2019 08:00:00 (CEST)Leutkirch-Herlazhofen, Germany (10945): temperature -20cm & temperature -100cm: 19.08.2019 08:00:00 - 25.08.2019 08:00:00 (CEST)Leutkirch-Herlazhofen, Germany (10945): wind speed & gusts: 19.08.2019 08:00:00 - 25.08.2019 08:00:00 (CEST)Leutkirch-Herlazhofen, Germany (10945): wind direction: 19.08.2019 08:00:00 - 25.08.2019 08:00:00 (CEST)Leutkirch-Herlazhofen, Germany (10945): reduced air pressure: 19.08.2019 08:00:00 - 25.08.2019 08:00:00 (CEST)Leutkirch-Herlazhofen, Germany (10945): visibility: 19.08.2019 08:00:00 - 25.08.2019 08:00:00 (CEST)Leutkirch-Herlazhofen, Germany (10945): sunshine duration: 19.08.2019 08:00:00 - 25.08.2019 08:00:00 (CEST)Leutkirch-Herlazhofen, Germany (10945): precipitation: 19.08.2019 08:00:00 - 25.08.2019 08:00:00 (CEST)
Date & Time tt [°C] td [°C] tt 5cm [°C] tt -5cm [°C] tt -20cm [°C] tt -100cm [°C] ff [km/h] ff [kn] fx [km/h] fx [kn] dd ppp [hPa] vv [km] sd [min] rr [mm]
25.08.2019 08:00:00 - - - - - - - - - - - - - - -
25.08.2019 07:00:00 11,8 11,6 9,1 14,6 18,2 17,2 2 1 4 2 S 1020,8 0,7 0 0,0
25.08.2019 06:00:00 11,4 11,2 9,0 15,0 18,5 17,2 0 0 6 3 N 1020,7 0,3 0 0,0
25.08.2019 05:00:00 11,5 11,2 8,9 15,4 18,8 17,2 4 2 5 3 E 1020,5 0,6 0 0,0
25.08.2019 04:00:00 11,5 11,1 10,1 15,9 19,0 17,2 4 2 7 4 ESE 1020,7 4,4 0 0,0
25.08.2019 03:00:00 12,0 11,7 9,8 16,4 19,3 17,2 4 2 6 3 SE 1020,5 2,1 0 0,0
25.08.2019 02:00:00 13,1 12,7 10,4 17,1 19,6 17,2 2 1 5 3 SSW 1020,0 2,4 0 0,0
25.08.2019 01:00:00 13,5 13,0 11,1 17,8 19,9 17,2 2 1 7 4 SSE 1019,9 3,4 0 0,0
25.08.2019 00:00:00 14,7 14,3 12,3 18,6 20,1 17,2 4 2 8 4 SSW 1019,9 6 0 0,0
24.08.2019 23:00:00 15,2 14,5 12,7 19,6 20,3 17,2 5 3 8 4 S 1019,9 10 0 0,0
24.08.2019 22:00:00 16,5 16,0 13,3 20,9 20,4 17,2 3 2 5 3 SSW 1019,3 8 0 0,0
24.08.2019 21:00:00 17,4 16,1 15,6 22,5 20,4 17,3 4 2 10 5 SSW 1019,2 10 0 0,0
24.08.2019 20:00:00 21,5 17,6 20,8 24,0 20,3 17,3 8 4 11 6 SW 1018,0 29 58 0,0
24.08.2019 19:00:00 23,7 16,1 26,0 25,3 20,0 17,3 5 3 8 4 ENE 1017,5 37 60 0,0
24.08.2019 18:00:00 24,3 15,9 26,5 26,1 19,6 17,3 5 3 10 5 SSW 1017,2 53 60 0,0
24.08.2019 17:00:00 24,7 15,6 27,8 26,7 19,1 17,3 5 3 9 5 SSW 1017,2 46 60 0,0
24.08.2019 16:00:00 24,3 14,6 28,1 26,8 18,5 17,3 5 3 14 7 W 1017,7 57 60 0,0
24.08.2019 15:00:00 23,3 14,9 28,2 26,5 17,9 17,3 7 4 10 6 SW 1018,2 47 60 0,0
24.08.2019 14:00:00 22,9 14,9 27,4 25,7 17,3 17,3 6 4 10 5 WNW 1018,5 41 59 0,0
24.08.2019 13:00:00 21,3 15,4 25,4 24,0 16,8 17,3 5 3 10 6 SSW 1019,1 44 60 0,0
24.08.2019 12:00:00 20,5 15,7 24,9 21,7 16,5 17,3 6 4 14 7 SW 1019,6 38 53 0,0
24.08.2019 11:00:00 19,3 15,0 22,3 19,7 16,2 17,3 6 3 10 5 W 1020,0 26 49 0,0
24.08.2019 10:00:00 18,9 15,0 21,3 17,7 16,1 17,3 3 1 7 4 W 1020,0 18 60 0,0
24.08.2019 09:00:00 16,2 14,0 17,3 15,2 16,1 17,3 3 2 5 3 E 1020,8 13 60 0,0
24.08.2019 08:00:00 12,4 11,8 12,5 13,8 16,3 17,3 0 0 4 2 N 1021,9 2,5 26 0,0
24.08.2019 07:00:00 10,7 10,4 10,1 13,6 16,4 17,3 0 0 5 3 N 1022,3 0,2 0 0,0
24.08.2019 06:00:00 11,2 11,1 10,7 13,7 16,6 17,4 4 2 5 3 SE 1022,0 0,1 0 0,0
24.08.2019 05:00:00 10,6 10,3 9,0 14,0 16,8 17,4 3 1 6 4 W 1022,1 0,1 0 0,0
24.08.2019 04:00:00 12,0 11,9 9,6 14,4 16,9 17,4 3 1 5 3 ENE 1021,8 0,2 0 0,0
24.08.2019 03:00:00 12,7 12,5 9,8 14,8 17,1 17,4 2 1 5 3 SE 1021,9 0,3 0 0,0
24.08.2019 02:00:00 12,2 11,5 10,0 15,4 17,2 17,4 0 0 6 4 N 1022,4 3,4 0 0,0
24.08.2019 01:00:00 13,6 13,1 10,8 16,1 17,3 17,4 0 0 10 5 N 1022,2 3,8 0 0,0
24.08.2019 00:00:00 16,6 14,1 13,9 16,9 17,4 17,4 6 3 13 7 ENE 1021,5 17 0 0,0
23.08.2019 23:00:00 17,4 14,4 16,5 17,3 17,4 17,4 7 4 11 6 ENE 1021,8 20 0 0,0
23.08.2019 22:00:00 17,5 14,5 16,9 17,5 17,4 17,4 5 3 9 5 NE 1022,4 22 0 0,0
23.08.2019 21:00:00 18,0 14,2 17,1 17,9 17,4 17,4 6 3 11 6 ENE 1022,4 25 0 0,0
23.08.2019 20:00:00 18,5 13,9 18,0 18,3 17,3 17,4 7 4 20 11 ENE 1022,1 32 0 0,0
23.08.2019 19:00:00 18,8 13,9 18,8 18,7 17,2 17,5 9 5 22 12 ENE 1022,0 38 0 0,0
23.08.2019 18:00:00 19,1 13,5 19,3 19,2 17,0 17,5 14 8 24 13 ENE 1022,1 28 0 0,0
23.08.2019 17:00:00 19,5 14,0 20,5 19,6 16,7 17,5 15 8 25 13 NE 1021,8 34 0 0,0
23.08.2019 16:00:00 19,6 14,0 21,8 19,5 16,4 17,5 12 6 24 13 NE 1022,1 43 0 0,0
23.08.2019 15:00:00 19,4 13,7 22,6 19,0 16,2 17,5 14 8 24 13 ENE 1022,5 43 2 0,0
23.08.2019 14:00:00 18,6 13,3 20,7 18,4 15,9 17,5 15 8 27 15 ENE 1023,2 49 0 0,0
23.08.2019 13:00:00 18,1 13,1 20,3 17,7 15,6 17,5 10 5 21 12 ENE 1023,5 35 0 0,0
23.08.2019 12:00:00 17,1 12,7 19,1 16,9 15,4 17,5 14 7 31 17 E 1024,1 33 0 0,0
23.08.2019 11:00:00 16,6 13,1 18,7 15,7 15,3 17,5 11 6 26 14 ENE 1024,3 28 0 0,0
23.08.2019 10:00:00 15,4 12,7 16,0 14,6 15,2 17,5 11 6 22 12 ENE 1024,8 20 0 0,0
23.08.2019 09:00:00 14,0 12,5 14,3 13,6 15,2 17,5 7 4 14 8 NNE 1025,1 12 0 0,0
23.08.2019 08:00:00 12,7 11,7 12,7 12,7 15,3 17,5 9 5 14 8 NNE 1025,5 13 0 0,0
23.08.2019 07:00:00 11,1 10,7 11,1 12,1 15,5 17,5 4 2 8 4 N 1026,1 11 0 0,0
23.08.2019 06:00:00 9,9 9,5 10,0 11,5 15,7 17,5 3 2 10 5 NNW 1026,4 3,4 0 0,0
23.08.2019 05:00:00 7,4 7,2 5,4 11,5 15,9 17,6 4 2 6 4 SSE 1027,1 0,7 0 0,0
23.08.2019 04:00:00 7,2 6,9 6,2 12,0 16,1 17,6 4 2 6 3 WSW 1027,3 0,1 0 0,0
23.08.2019 03:00:00 8,5 8,1 6,2 12,6 16,3 17,6 4 2 10 6 W 1026,9 0,8 0 0,0
23.08.2019 02:00:00 12,1 11,1 10,0 13,1 16,5 17,6 6 3 12 7 ESE 1026,1 21 0 0,0
23.08.2019 01:00:00 9,3 9,0 9,4 12,9 16,8 17,6 3 1 5 3 ESE 1027,5 1,4 0 0,0
23.08.2019 00:00:00 8,9 8,5 6,4 13,5 17,0 17,6 0 0 3 2 N 1027,5 0,4 0 0,0
22.08.2019 23:00:00 10,3 9,8 7,3 14,4 17,2 17,6 0 0 5 3 N 1027,3 2,2 0 0,0
22.08.2019 22:00:00 12,0 11,0 8,2 15,5 17,2 17,6 5 3 8 5 ESE 1026,9 13 0 0,0
22.08.2019 21:00:00 14,0 11,7 11,9 16,5 17,3 17,6 5 3 15 8 ESE 1025,9 30 0 0,0
22.08.2019 20:00:00 15,9 12,3 15,6 17,3 17,2 17,6 9 5 16 9 E 1025,0 38 0 0,0
22.08.2019 19:00:00 16,2 12,3 16,5 17,8 17,1 17,6 8 4 14 8 E 1024,5 32 0 0,0
22.08.2019 18:00:00 16,1 12,2 16,8 17,7 17,0 17,6 10 6 20 11 E 1024,5 34 0 0,0
22.08.2019 17:00:00 15,5 12,0 16,7 17,8 16,9 17,6 13 7 22 12 E 1024,8 29 0 0,0
22.08.2019 16:00:00 15,2 11,9 16,8 17,8 16,8 17,6 13 7 21 12 E 1024,9 24 0 0,0
22.08.2019 15:00:00 15,1 11,6 17,3 17,7 16,6 17,7 11 6 23 12 ENE 1025,0 28 0 0,0
22.08.2019 14:00:00 14,9 12,0 17,1 17,3 16,5 17,7 13 7 21 12 ENE 1025,0 38 0 0,0
22.08.2019 13:00:00 14,4 11,8 16,5 16,7 16,3 17,7 14 7 21 12 ENE 1025,1 34 0 0,0
22.08.2019 12:00:00 13,8 11,5 15,6 16,1 16,3 17,7 12 7 20 11 ENE 1025,3 32 0 0,0
22.08.2019 11:00:00 13,4 11,2 15,2 15,5 16,2 17,7 10 6 20 11 ENE 1025,1 27 0 0,0
22.08.2019 10:00:00 12,8 11,0 13,8 14,8 16,3 17,7 12 6 20 11 NE 1025,1 27 0 0,0
22.08.2019 09:00:00 12,8 11,2 13,4 14,4 16,3 17,7 10 5 19 10 ENE 1024,8 20 0 0,0
22.08.2019 08:00:00 12,5 11,1 12,7 14,2 16,4 17,7 8 4 15 8 NE 1024,7 20 0 0,0
22.08.2019 07:00:00 12,5 11,1 12,4 14,1 16,5 17,7 6 3 16 9 NE 1024,3 26 0 0,0
22.08.2019 06:00:00 13,0 11,2 12,7 14,0 16,6 17,7 10 5 18 10 NE 1024,1 28 0 0,0
22.08.2019 05:00:00 12,7 11,3 12,2 13,9 16,7 17,7 6 3 13 7 NE 1024,1 27 0 0,0
22.08.2019 04:00:00 12,6 11,3 11,9 13,6 16,9 17,7 5 3 13 7 NNE 1024,6 31 0 0,0
22.08.2019 03:00:00 11,9 10,7 10,3 13,8 17,1 17,7 6 4 14 7 NE 1024,6 35 0 0,0
22.08.2019 02:00:00 12,5 10,9 11,0 14,1 17,2 17,7 9 5 14 8 ENE 1024,8 36 0 0,0
22.08.2019 01:00:00 13,0 11,1 11,4 14,6 17,4 17,7 10 5 17 9 NE 1025,1 39 0 0,0
22.08.2019 00:00:00 13,6 11,3 11,9 14,9 17,6 17,8 8 5 23 12 ENE 1025,4 41 0 0,0
21.08.2019 23:00:00 14,1 11,1 12,6 15,3 17,7 17,8 13 7 23 13 ENE 1025,4 49 0 0,0
21.08.2019 22:00:00 14,6 10,9 13,4 15,9 17,9 17,8 14 8 22 12 ENE 1025,7 63 0 0,0
21.08.2019 21:00:00 14,5 10,7 13,6 16,4 17,9 17,8 10 6 26 14 ENE 1025,8 74 0 0,0
21.08.2019 20:00:00 15,1 10,2 14,4 17,4 18,0 17,8 16 8 26 14 ENE 1025,5 68 10 0,0
21.08.2019 19:00:00 16,0 10,3 17,1 18,1 17,9 17,8 15 8 29 16 E 1025,5 45 4 0,0
21.08.2019 18:00:00 16,1 10,3 17,0 18,6 17,8 17,8 17 9 29 16 ENE 1025,9 58 0 0,0
21.08.2019 17:00:00 16,3 10,2 17,8 19,0 17,7 17,8 16 9 34 18 ENE 1025,8 50 0 0,0
21.08.2019 16:00:00 16,5 10,8 18,1 19,6 17,5 17,8 17 9 34 19 NE 1026,0 51 15 0,0
21.08.2019 15:00:00 16,1 10,6 17,9 19,6 17,2 17,8 19 11 34 19 NE 1026,2 57 31 0,0
21.08.2019 14:00:00 15,9 10,3 17,8 18,9 17,0 17,8 18 10 33 18 NE 1026,4 64 10 0,0
21.08.2019 13:00:00 15,5 10,0 17,1 19,1 16,8 17,8 19 10 32 17 NE 1026,8 63 17 0,0
21.08.2019 12:00:00 15,5 10,1 18,5 18,5 16,5 17,8 20 11 36 20 ENE 1026,9 75 42 0,0
21.08.2019 11:00:00 14,7 10,5 16,9 17,1 16,4 17,8 19 10 36 19 ENE 1027,5 75 29 0,0
21.08.2019 10:00:00 14,2 10,7 16,4 16,0 16,3 17,8 19 11 31 17 ENE 1027,7 58 52 0,0
21.08.2019 09:00:00 13,2 10,3 14,4 14,7 16,4 17,8 14 8 25 14 NE 1028,3 65 35 0,0
21.08.2019 08:00:00 11,9 10,4 12,0 13,7 16,5 17,8 9 5 14 8 ENE 1028,4 33 0 0,0
21.08.2019 07:00:00 11,2 10,3 10,7 13,6 16,6 17,8 5 3 10 5 N 1028,7 25 0 0,0
21.08.2019 06:00:00 11,3 10,4 10,9 13,7 16,7 17,8 7 4 12 7 NE 1028,4 18 0 0,0
21.08.2019 05:00:00 11,2 10,5 10,9 13,8 16,8 17,8 3 1 6 3 N 1028,7 19 0 0,0
21.08.2019 04:00:00 11,2 10,1 10,8 13,8 16,9 17,8 5 3 10 5 ESE 1028,6 44 0 0,0
21.08.2019 03:00:00 11,3 10,5 10,8 14,0 17,1 17,8 3 2 11 6 NE 1028,5 30 0 0,1
21.08.2019 02:00:00 11,3 10,7 11,1 14,1 17,2 17,8 9 5 11 6 NNW 1028,6 22 0 0,3
21.08.2019 01:00:00 11,3 10,7 11,1 14,2 17,4 17,8 6 3 10 5 SE 1028,2 17 0 2,2
21.08.2019 00:00:00 11,6 11,1 11,5 14,5 17,6 17,8 4 2 7 4 SSW 1028,6 6 0 2,5
20.08.2019 23:00:00 11,8 11,0 11,6 14,7 17,9 17,8 4 2 10 6 SW 1028,3 10 0 3,1
20.08.2019 22:00:00 12,0 11,1 11,7 15,0 18,1 17,8 8 4 14 7 WNW 1028,2 7 0 3,9
20.08.2019 21:00:00 12,2 11,3 11,9 15,4 18,4 17,7 8 5 22 12 NW 1027,1 8 0 4,7
20.08.2019 20:00:00 12,5 11,6 12,4 16,0 18,6 17,7 4 2 13 7 N 1025,8 8 0 3,1
20.08.2019 19:00:00 12,5 11,3 12,3 16,6 18,8 17,7 6 4 24 13 NNW 1025,2 6 0 2,2
20.08.2019 18:00:00 13,0 12,0 12,8 17,2 18,9 17,7 16 9 26 14 NW 1024,8 5 0 3,6
20.08.2019 17:00:00 14,0 12,7 13,7 18,1 19,0 17,6 15 8 23 13 WNW 1023,3 6 0 2,1
20.08.2019 16:00:00 15,2 13,4 15,3 18,4 19,0 17,6 5 3 14 7 WNW 1021,9 25 0 2,4
20.08.2019 15:00:00 14,5 13,9 14,8 18,5 19,0 17,6 12 7 24 13 NW 1021,8 5 0 5,8
20.08.2019 14:00:00 16,4 15,4 16,8 19,6 18,9 17,6 8 4 14 8 N 1020,5 9 0 0,3
20.08.2019 13:00:00 16,8 15,4 17,3 19,4 18,9 17,6 7 4 11 6 N 1020,5 19 0 0,4
20.08.2019 12:00:00 16,8 15,3 17,6 18,8 18,9 17,6 6 3 10 5 NNE 1020,5 17 0 0,5
20.08.2019 11:00:00 16,1 15,0 16,3 18,3 18,9 17,6 8 4 11 6 NNW 1020,9 15 0 1,2
20.08.2019 10:00:00 15,7 14,6 15,8 18,0 19,0 17,6 6 3 8 5 NNW 1020,6 10 0 0,6
20.08.2019 09:00:00 15,8 14,1 16,0 17,7 19,1 17,6 3 1 8 4 NE 1020,4 26 0 0,1
20.08.2019 08:00:00 15,7 14,8 15,8 17,6 19,2 17,6 3 2 10 5 SE 1020,3 25 0 0,0
20.08.2019 07:00:00 15,5 14,5 15,5 17,7 19,3 17,6 0 0 5 3 N 1020,3 24 0 0,0
20.08.2019 06:00:00 15,5 14,6 15,5 17,8 19,4 17,6 5 3 8 5 W 1020,3 29 0 0,0
20.08.2019 05:00:00 15,8 14,9 15,7 17,9 19,5 17,6 5 3 12 6 NW 1019,9 14 0 0,0
20.08.2019 04:00:00 16,1 15,2 15,9 18,1 19,7 17,6 5 3 6 3 WNW 1019,9 12 0 0,0
20.08.2019 03:00:00 16,1 15,7 16,1 18,2 19,8 17,6 2 1 9 5 W 1020,2 7 0 0,0
20.08.2019 02:00:00 16,0 15,4 15,7 18,4 20,0 17,6 6 3 9 5 SW 1020,6 13 0 0,5
20.08.2019 01:00:00 16,2 15,6 16,0 18,6 20,2 17,6 5 3 9 5 E 1020,2 7 0 1,6
20.08.2019 00:00:00 16,4 16,0 16,2 19,0 20,3 17,6 5 3 10 5 ESE 1019,9 7 0 0,1
19.08.2019 23:00:00 16,4 16,0 16,2 19,2 20,5 17,6 3 2 5 3 SW 1019,9 14 0 0,2
19.08.2019 22:00:00 16,4 15,8 16,1 19,6 20,7 17,5 4 2 7 4 ESE 1019,5 19 0 0,0
19.08.2019 21:00:00 16,1 15,0 15,5 20,4 20,8 17,5 5 3 12 7 E 1019,0 30 0 1,2
19.08.2019 20:00:00 18,7 14,9 18,0 21,4 20,8 17,5 10 6 17 9 NNW 1018,2 57 0 0,0
19.08.2019 19:00:00 19,8 15,5 19,6 22,6 20,7 17,5 10 5 17 9 NW 1017,4 67 2 0,0
19.08.2019 18:00:00 21,3 14,9 22,0 23,4 20,5 17,5 4 2 13 7 W 1016,8 73 6 0,0
19.08.2019 17:00:00 21,4 15,0 22,4 23,8 20,3 17,5 8 4 13 7 WSW 1016,8 75 15 0,0
19.08.2019 16:00:00 21,3 14,5 22,4 24,0 20,0 17,5 8 4 22 12 W 1016,7 75 14 0,0
19.08.2019 15:00:00 21,3 14,9 23,1 24,2 19,6 17,5 12 6 21 12 WSW 1016,9 69 45 0,0
19.08.2019 14:00:00 20,7 14,8 23,0 23,2 19,4 17,5 16 9 28 15 WSW 1016,9 70 52 0,0
19.08.2019 13:00:00 20,3 14,7 22,6 21,8 19,2 17,5 18 10 26 14 WSW 1016,8 75 39 0,0
19.08.2019 12:00:00 19,5 14,7 20,9 20,9 19,0 17,5 16 8 24 13 SW 1016,8 75 25 0,0
19.08.2019 11:00:00 19,0 16,2 20,7 19,4 19,0 17,5 10 6 16 9 SW 1016,9 75 14 0,0
19.08.2019 10:00:00 17,9 15,1 18,6 18,0 19,1 17,5 11 6 19 10 SSW 1016,9 75 7 0,0
19.08.2019 09:00:00 15,9 14,8 15,7 17,3 19,2 17,5 11 6 23 12 SSE 1016,7 53 0 0,6
19.08.2019 08:00:00 15,6 14,5 15,2 17,1 19,4 17,5 14 8 22 12 SSW 1017,8 39 0 0,4

tt = temperature
td = dewpoint
tt 5cm = temperature 5cm
tt -5cm = temperature -5cm
tt -20cm = temperature -20cm
tt -100cm = temperature -100cm
ff = wind speed
fx = gusts
dd = wind direction
ppp = reduced air pressure
vv = visibility
sd = sunshine duration
rr = precipitation

Next stations